Weather History for Crestview, FL

Change the Weather History Date:

Tuesday, January 22, 2013

  Actual Average Record
Temperature  
Mean Temperature 46 °F -  
Max Temperature 58 °F - - ()
Min Temperature 34 °F - - ()
Degree Days  
Heating Degree Days 19    
Moisture  
Dew Point 30 °F    
Average Humidity 62    
Maximum Humidity 89    
Minimum Humidity 27    
Precipitation  
Precipitation 0.00 in - - ()
Sea Level Pressure  
Sea Level Pressure 30.30 in    
Wind  
Wind Speed 6 mph (North)    
Max Wind Speed 12 mph    
Max Gust Speed -    
Visibility 10 miles    
Events      
T = Trace of Precipitation, MM = Missing Value Source: NWS Daily Summary

Daily Weather History Graph

Daily Weather History Graph

Search for Another Location

Airport:

Trip Planner

Search our weather history database for the weather conditions in past years. The results will help you decide how hot, cold, wet, or windy it might be!

Date:

Astronomy

Jan. 22, 2013 Rise Set
Actual Time 6:42 AM CST 5:13 PM CST
Civil Twilight 6:16 AM CST 5:39 PM CST
Nautical Twilight 5:47 AM CST 6:08 PM CST
Astronomical Twilight 5:18 AM CST 6:37 PM CST
Moon 1:39 PM CST (1/22) 3:00 AM CST (1/22)
Length of Visible Light 11h 22m
Length of Day
10h 31m
Waxing Gibbous, 83% of the Moon is Illuminated
Jan 22
Waxing Gibbous
Jan 26
Full
Feb 3
Last Quarter
Feb 10
New
Feb 17
First Quarter

Hourly Weather History & Observations

Time (CST) Temp. Windchill Dew Point Humidity Pressure Visibility Wind Dir Wind Speed Gust Speed Precip Events Conditions
12:55 AM 44.2 °F 41.8 °F 37.9 °F 79% 30.20 in 10.0 mi North 4.6 mph - N/A   Clear
1:55 AM 42.6 °F 39.9 °F 36.1 °F 78% 30.21 in 10.0 mi North 4.6 mph - N/A   Clear
2:55 AM 39.4 °F 34.5 °F 34.3 °F 82% 30.22 in 10.0 mi North 6.9 mph - N/A   Clear
3:55 AM 35.6 °F 29.9 °F 32.7 °F 89% 30.23 in 10.0 mi North 6.9 mph - N/A   Clear
4:55 AM 35.4 °F 29.7 °F 31.6 °F 86% 30.26 in 10.0 mi North 6.9 mph - N/A   Clear
5:55 AM 35.4 °F 29.0 °F 31.1 °F 84% 30.28 in 10.0 mi North 8.1 mph - N/A   Clear
6:55 AM 36.0 °F 29.6 °F 30.2 °F 80% 30.31 in 10.0 mi North 8.1 mph - N/A   Clear
7:55 AM 39.7 °F 34.9 °F 29.3 °F 66% 30.33 in 10.0 mi North 6.9 mph - N/A   Clear
8:55 AM 43.5 °F 37.5 °F 26.2 °F 51% 30.35 in 10.0 mi North 11.5 mph - N/A   Mostly Cloudy
9:55 AM 48.7 °F - 23.4 °F 37% 30.37 in 10.0 mi North 11.5 mph - N/A   Mostly Cloudy
10:55 AM 53.4 °F - 20.5 °F 28% 30.35 in 10.0 mi North 11.5 mph - N/A   Mostly Cloudy
11:58 AM 55.6 °F - 21.6 °F 27% 30.32 in 10.0 mi NE 8.1 mph - N/A   Mostly Cloudy
12:55 PM 57.0 °F - 23.2 °F 27% 30.29 in 10.0 mi NNW 8.1 mph - N/A   Mostly Cloudy
1:55 PM 57.7 °F - 25.9 °F 29% 30.27 in 10.0 mi North 6.9 mph - N/A   Mostly Cloudy
2:55 PM 58.5 °F - 25.9 °F 29% 30.28 in 6.0 mi NNW 6.9 mph - N/A   Smoke
3:55 PM 57.4 °F - 27.1 °F 31% 30.29 in 10.0 mi NW 5.8 mph - N/A   Mostly Cloudy
4:55 PM 54.5 °F - 30.7 °F 40% 30.29 in 10.0 mi NW 4.6 mph - N/A   Scattered Clouds
5:55 PM 46.4 °F - 33.6 °F 61% 30.29 in 10.0 mi Calm Calm - N/A   Partly Cloudy
6:55 PM 41.5 °F - 32.4 °F 70% 30.32 in 10.0 mi Calm Calm - N/A   Clear
7:55 PM 39.4 °F - 32.2 °F 75% 30.35 in 10.0 mi Calm Calm - N/A   Clear
8:55 PM 37.9 °F - 32.2 °F 80% 30.36 in 10.0 mi Calm Calm - N/A   Clear
9:55 PM 36.0 °F - 31.6 °F 84% 30.38 in 10.0 mi Calm Calm - N/A   Clear
10:55 PM 34.7 °F - 30.9 °F 86% 30.38 in 10.0 mi Calm Calm - N/A   Clear
11:55 PM 34.7 °F - 30.7 °F 85% 30.38 in 10.0 mi Calm Calm - N/A   Clear